Regional Weather Roundup
Issued by NWS

Home | Current Version | Previous Version | Text Only | Print | Product List | Glossary On
Versions: 1 2 3 4 5 6 7 8 9 10 11 12 13 14 15 16 17 18 19 20 21 22 23 24 25 26 27 28 29 30 31 32 33 34 35 36 37 38 39 40 41 42 43 44 45 46 47 48 49 50
000
ASPQ40 PGUM 260712
RWRPQ
WEATHER ROUNDUP FOR THE MARIANAS AND MICRONESIA
NATIONAL WEATHER SERVICE TIYAN GU
500 PM CHST MON JUN 26 2017

GUZ001>004-260800-
MARIANA ISLANDS-

CITY           SKY/WX    TMP DP  RH WIND       PRES   REMARKS
GUAM AIRPORT   MOSUNNY   86  79  79 E10       29.84S HX  99
ANDERSEN AFB   MOSUNNY   84  77  79 SE12      29.85S HX  94
ROTA AIRPORT   MOSUNNY   84  77  79 E16       29.85R HX  94
TINIAN AP      PTSUNNY   84  77  79 E8        29.83R HX  94
SAIPAN AP      PTSUNNY   90  79  70 E12       29.84R HX 105

$$

PMZ161-260800-
REPUBLIC OF PALAU-

CITY           SKY/WX    TMP DP  RH WIND       PRES   REMARKS
KOROR AP       PTSUNNY   84  77  79 W3        29.77F HX  94
KOROR WSO      LGT RAIN  84  77  79 CALM      29.79F HX  94

$$

PMZ171>174-260800-
FEDERATED STATES OF MICRONESIA-

CITY           SKY/WX    TMP DP  RH WIND       PRES   REMARKS
YAP AIRPORT    PTSUNNY   88  79  74 SW8       29.80R HX 102
CHUUK AP       CLOUDY    84  81  89 VRB3      29.77S HX  98
POHNPEI AP     NOT AVBL
POHNPEI WSO    CLOUDY    84  75  74 E5        29.84R HX  92
KOSRAE AP      NOT AVBL

$$

PMZ181-260800-
REPUBLIC OF THE MARSHALL ISLANDS-

CITY           SKY/WX    TMP DP  RH WIND       PRES   REMARKS
KWAJALEIN AP   CLEAR     82  73  74 E17       29.83S
MAJURO AP      MOCLDY    84  75  74 NE18      29.82R HX  92
MAJURO WSO     PTCLDY    82  75  78 E9        29.80S

$$




USA.gov is the U.S. government's official web portal to all federal, state and local government web resources and services.